Powrót do katalogu

ARIANE 2 DEB

LostGTO
NORAD 27602·DEBRIS·🇫🇷 France

Wystrzelony Jan 27, 1989 z Guiana Space Centre

Loading…

TLE

NieaktualneSource: Space-Track

Epoka: Mar 22, 2026, 11:39 UTC

1 27602U 89006AC  26081.48607134 -.00000370  00000-0 -15245-1 0  9990
2 27602   7.7885  16.6981 7068112 216.2694 328.5037  2.25350494 97716

Śledź ARIANE 2 DEB w czasie rzeczywistym z AllMySat

Download on the App Store